Home   Weather   Prince Rupert   Past weeks

Flag for Canada Past Weather in Prince Rupert, British Columbia, Canada — Yesterday and Last 2 Weeks

54 °F


Feels Like: 53 °F
Forecast: 40 / 55 °F
Wind: 3 mph from North

Location: Prince Rupert

Current Time: Oct 24, 2016 at 11:37:36 AM

Latest Report: Oct 24, 2016 at 11:00 AM

Visibility: 9 mi

Pressure: 29.60 "Hg

Humidity: 58%

Dew Point: 39 °F

Location of Prince RupertLocation

Past Weather in Prince Rupert — Graph


Prince Rupert Temperature Yesterday

Maximum temperature yesterday: 54 °F (at 1:00 PM)
Minimum temperature yesterday: 41 °F (at 5:00 AM)
Average temperature yesterday: 48 °F

High & Low Weather Summary for the Past Weeks

High57 °F (Oct 11, 5:00 PM)100% (Oct 10, 7:00 AM)30.20 "Hg (Oct 10, 7:00 AM)
Low34 °F (Oct 10, 7:00 AM)41% (Oct 11, 5:00 PM)29.02 "Hg (Oct 14, 7:00 AM)
Average47 °F81%29.66 "Hg
* Reported Oct 9 10:00 AM — Oct 24 10:00 AM, Prince Rupert, Weather by CustomWeather, © 2016

Note: Actual official high and low records may vary slightly from our data, if they occured in-between our weather recording intervals... More about our weather records


Prince Rupert Weather History for the Previous 24 Hours

Scroll right to see more
Time TempWeatherWind HumidityBarometerVisibility
10:00 AM
Mon, Oct 24
45 °FSunny.3 mph81%29.63 "Hg9 mi
9:00 AM45 °FSunny.3 mph71%29.65 "Hg9 mi
8:00 AM39 °FClear.3 mph81%29.67 "Hg9 mi
7:00 AM39 °FClear.5 mph87%29.68 "Hg9 mi
6:00 AM39 °FClear.3 mph93%29.70 "Hg9 mi
5:00 AM41 °FClear.2 mph87%29.71 "Hg9 mi
4:00 AM45 °FClear.7 mph76%29.73 "Hg9 mi
3:00 AM43 °FClear.8 mph81%29.75 "Hg9 mi
2:00 AM46 °FClear.8 mph76%29.77 "Hg9 mi
1:00 AM43 °FClear.6 mph87%29.78 "Hg9 mi
12:00 AM46 °FPassing clouds.9 mph82%29.80 "Hg9 mi
11:00 PM
Sun, Oct 23
48 °FOvercast.8 mph76%29.81 "Hg9 mi
10:00 PM48 °FOvercast.7 mph76%29.81 "Hg9 mi
9:00 PM48 °FPassing clouds.3 mph82%29.81 "Hg9 mi
8:00 PM50 °FMostly cloudy.5 mph76%29.82 "Hg9 mi
7:00 PM50 °FMostly cloudy.6 mph82%29.81 "Hg9 mi
6:00 PM50 °FLight rain. Mostly cloudy.8 mph82%29.81 "Hg9 mi
5:00 PM52 °FMostly cloudy.12 mph77%29.80 "Hg9 mi
4:00 PM52 °FCloudy.12 mph72%29.78 "Hg9 mi
3:00 PM54 °FMore clouds than sun.12 mph63%29.76 "Hg9 mi
2:00 PM52 °FPartly sunny.12 mph72%29.75 "Hg9 mi
1:00 PM54 °FMostly cloudy.12 mph67%29.74 "Hg9 mi
12:00 PM50 °FLight rain. Overcast.10 mph82%29.73 "Hg9 mi
11:49 AM50 °FLight rain. Overcast.10 mph82%29.72 "Hg9 mi
11:00 AM52 °FLight rain. Overcast.14 mph67%29.70 "Hg9 mi
Weather by CustomWeather, © 2016

See weather overviewHow to use our weather pages